EW0597 Weather Reports


time (UTC)temp
C
wind
direction
speed
KPH
gust
KPH
rain 1hr
cm
rain 24hr
cm
rain mn
cm
humidity
%
barometer
mb
20260507001507 25 196 1.6 14.5 0.00 0.00 0.00 54 1016.8
20260507000008 25 279 1.6 12.9 0.00 0.00 0.00 54 1016.9
20260506234506 24 42 1.6 12.9 0.00 0.00 0.00 54 1016.9
20260506233004 25 29 1.6 9.7 0.00 0.00 0.00 54 1017.0
20260506231502 25 330 1.6 8.0 0.00 0.00 0.00 53 1017.0
20260506230104 25 17 1.6 9.7 0.00 0.00 0.00 52 1017.2
20260506224558 25 5 1.6 8.0 0.00 0.00 0.00 53 1017.3
20260506223100 25 227 1.6 9.7 0.00 0.00 0.00 53 1017.5
20260506221600 25 317 0.0 8.0 0.00 0.00 0.00 53 1017.6
20260506220049 25 317 3.2 9.7 0.00 0.00 0.00 50 1017.9
20260506214547 25 355 0.0 8.0 0.00 0.00 0.00 52 1018.1
20260506213048 24 67 1.6 8.0 0.00 0.00 0.00 54 1018.2
20260506211545 23 311 0.0 8.0 0.00 0.00 0.00 55 1018.4
20260506210044 23 323 1.6 9.7 0.00 0.00 0.00 56 1018.6
20260506204534 23 80 0.0 6.4 0.00 0.00 0.00 58 1018.7
20260506203033 22 333 1.6 8.0 0.00 0.00 0.00 58 1018.8
20260506201535 22 21 0.0 6.4 0.00 0.00 0.00 60 1019.1
20260506200030 22 39 0.0 8.0 0.00 0.00 0.00 60 1019.3
20260506194524 22 306 0.0 12.9 0.00 0.00 0.00 61 1019.4
20260506193032 22 61 1.6 4.8 0.00 0.00 0.00 61 1019.5
20260506191514 21 332 1.6 6.4 0.00 0.00 0.00 63 1019.6
20260506190011 20 103 0.0 4.8 0.00 0.00 0.00 65 1019.8
20260506184507 20 132 1.6 8.0 0.00 0.00 0.00 66 1019.9
20260506183003 19 76 1.6 6.4 0.00 0.00 0.00 67 1020.0
20260506181607 18 350 0.0 11.3 0.00 0.00 0.00 69 1020.2
20260506180055 18 315 0.0 4.8 0.00 0.00 0.00 71 1020.2
20260506174550 17 211 0.0 6.4 0.00 0.00 0.00 76 1020.4
20260506173113 16 240 0.0 3.2 0.00 0.00 0.00 78 1020.5
20260506171545 15 238 0.0 3.2 0.00 0.00 0.00 79 1020.6
20260506170051 15 255 0.0 0.0 0.00 0.00 0.00 81 1020.7
20260506164538 15 255 0.0 1.6 0.00 0.00 0.00 82 1020.6
20260506163041 14 255 0.0 0.0 0.00 0.00 0.00 84 1020.7
20260506161532 14 255 0.0 1.6 0.00 0.00 0.00 86 1020.7
20260506160031 13 254 0.0 0.0 0.00 0.00 0.00 88 1020.7
20260506154528 13 254 0.0 0.0 0.00 0.00 0.00 89 1020.7
20260506153027 13 254 0.0 0.0 0.00 0.00 0.00 90 1020.5
20260506151525 12 254 0.0 0.0 0.00 0.00 0.00 91 1020.5
20260506150025 12 254 0.0 0.0 0.00 0.00 0.00 91 1020.6
20260506144524 12 254 0.0 0.0 0.00 0.00 0.00 92 1020.5
20260506143027 12 254 0.0 0.0 0.00 0.00 0.00 91 1020.4
20260506141521 11 254 0.0 0.0 0.00 0.00 0.00 91 1020.4
20260506140022 11 254 0.0 0.0 0.00 0.00 0.00 91 1020.3
20260506134518 11 254 0.0 0.0 0.00 0.00 0.00 91 1020.0
20260506133016 10 254 0.0 0.0 0.00 0.00 0.00 91 1019.8
20260506131515 10 254 0.0 0.0 0.00 0.00 0.00 91 1019.7
20260506130015 10 254 0.0 0.0 0.00 0.00 0.00 91 1019.6
20260506124513 10 254 0.0 0.0 0.00 0.00 0.00 91 1019.5
20260506123012 10 254 0.0 0.0 0.00 0.00 0.00 91 1019.4
20260506121510 10 254 0.0 0.0 0.00 0.00 0.00 91 1019.5
20260506120009 10 254 0.0 0.0 0.00 0.00 0.00 91 1019.3
20260506114505 10 254 0.0 0.0 0.00 0.00 0.00 91 1019.2
20260506113004 10 254 0.0 0.0 0.00 0.00 0.00 91 1019.0
20260506111600 11 254 0.0 0.0 0.00 0.00 0.00 91 1019.0
20260506110058 11 254 0.0 0.0 0.00 0.03 0.00 90 1019.0
20260506104623 11 254 0.0 0.0 0.00 0.03 0.00 89 1018.8
20260506103053 12 254 0.0 0.0 0.00 0.03 0.00 89 1018.8
20260506101550 12 254 0.0 0.0 0.00 0.03 0.00 89 1018.8
20260506100047 13 254 0.0 0.0 0.00 0.03 0.00 88 1018.9
20260506094546 13 254 0.0 0.0 0.00 0.03 0.00 88 1018.8
20260506093045 13 254 0.0 0.0 0.00 0.03 0.00 88 1018.8
20260506091544 13 254 0.0 0.0 0.00 0.03 0.00 87 1018.8
20260506090047 13 254 0.0 0.0 0.00 0.03 0.00 87 1018.7
20260506084542 13 254 0.0 0.0 0.00 0.03 0.00 87 1018.7
20260506083044 13 254 0.0 0.0 0.00 0.03 0.00 87 1018.8
20260506081541 13 254 0.0 0.0 0.00 0.03 0.00 87 1018.9
20260506073036 13 254 0.0 0.0 0.00 0.03 0.00 86 1018.5
20260506071534 13 254 0.0 0.0 0.00 0.03 0.00 85 1018.4
20260506061528 13 254 0.0 0.0 0.00 0.03 0.03 83 1018.1
20260506044526 14 274 0.0 0.0 0.00 0.03 0.03 82 1017.3
20260506043021 14 274 0.0 1.6 0.00 0.03 0.03 81 1017.2
20260506041519 14 291 0.0 1.6 0.00 0.03 0.03 81 1017.1
20260506040028 14 277 0.0 1.6 0.00 0.03 0.03 82 1016.8
20260506034515 14 279 0.0 4.8 0.00 0.03 0.03 81 1016.7
20260506033014 14 277 0.0 4.8 0.00 0.03 0.03 80 1016.4
20260506031511 15 273 0.0 6.4 0.00 0.03 0.03 80 1016.3
20260506030012 15 241 0.0 4.8 0.00 0.03 0.03 79 1016.1
20260506024523 15 251 0.0 6.4 0.00 0.03 0.03 78 1015.9
20260506023008 15 232 0.0 4.8 0.00 0.03 0.03 77 1015.8
20260506021508 15 272 0.0 11.3 0.00 0.03 0.03 77 1015.7
20260506020009 15 278 1.6 8.0 0.00 0.03 0.03 76 1015.7
20260506014515 15 329 1.6 12.9 0.00 0.03 0.03 75 1015.6
20260506013007 15 292 0.0 8.0 0.00 0.03 0.03 75 1015.7
20260506011513 15 267 1.6 4.8 0.00 0.03 0.03 75 1015.6
20260506010010 16 249 1.6 9.7 0.00 0.03 0.03 75 1015.5
20260506004507 16 277 0.0 9.7 0.00 0.03 0.03 75 1015.5
20260506003005 16 289 0.0 8.0 0.00 0.03 0.03 75 1015.5